When you browse on this site, cookies collect data to enhance your experience and personalize the content and advertising you see.
Visit our Privacy Policy to learn more. By continuing to use the site, you agree to this use of cookies and data.
  • In Portugal
  • List of Countries
  • For 7 days
  • Water Temperature
  • Weather Map
  • Weather Widgets
  • user-avatar
    Login

    Hourly Weather Krasnyy

    Today, 25 August, Sunday

    Time Temperature Precipitation Wind Pressure Humidity
    00:00 +15°C° 0 mm 2 mps 752 mmHg 79%
    01:00 +15°C° 0 mm 2 mps 752 mmHg 81%
    02:00 +14°C° 0 mm 2 mps 752 mmHg 83%
    03:00 +14°C° 0 mm 2 mps 753 mmHg 85%
    04:00 +14°C° 0 mm 2 mps 752 mmHg 88%
    05:00 +14°C° 0 mm 2 mps 752 mmHg 90%
    06:00 +14°C° 0 mm 2 mps 752 mmHg 93%
    07:00 +16°C° 0 mm 3 mps 753 mmHg 85%
    08:00 +17°C° 0 mm 3 mps 753 mmHg 76%
    09:00 +18°C° 0 mm 4 mps 753 mmHg 68%
    10:00 +19°C° 0 mm 4 mps 753 mmHg 63%
    11:00 +20°C° 0 mm 4 mps 753 mmHg 58%
    12:00 +21°C° 0 mm 4 mps 753 mmHg 53%
    13:00 +21°C° 0 mm 4 mps 754 mmHg 53%
    14:00 +21°C° 0 mm 4 mps 754 mmHg 53%
    15:00 +22°C° 0 mm 4 mps 754 mmHg 53%
    16:00 +20°C° 0 mm 4 mps 754 mmHg 58%
    17:00 +19°C° 0 mm 4 mps 754 mmHg 64%
    18:00 +18°C° 0 mm 4 mps 754 mmHg 69%
    19:00 +16°C° 0 mm 3 mps 755 mmHg 75%
    20:00 +14°C° 0 mm 3 mps 755 mmHg 80%
    21:00 +13°C° 0 mm 2 mps 756 mmHg 86%
    22:00 +12°C° 0 mm 2 mps 756 mmHg 89%
    23:00 +12°C° 0 mm 2 mps 756 mmHg 91%

    Tomorrow, 26 August, Monday

    Time Temperature Precipitation Wind Pressure Humidity
    00:00 +10°C° 0 mm 2 mps 756 mmHg 94%
    01:00 +11°C° 0 mm 1 mps 757 mmHg 94%
    02:00 +11°C° 0 mm 1 mps 757 mmHg 95%
    03:00 +11°C° 0 mm 1 mps 757 mmHg 96%
    04:00 +11°C° 0 mm 1 mps 757 mmHg 95%
    05:00 +11°C° 0 mm 1 mps 757 mmHg 94%
    06:00 +11°C° 0 mm 1 mps 757 mmHg 94%
    07:00 +13°C° 0 mm 1 mps 758 mmHg 84%
    08:00 +15°C° 0 mm 1 mps 758 mmHg 75%
    09:00 +18°C° 0 mm 1 mps 758 mmHg 66%
    10:00 +19°C° 0 mm 1 mps 758 mmHg 61%
    11:00 +21°C° 0 mm 1 mps 758 mmHg 57%
    12:00 +22°C° 0 mm 1 mps 757 mmHg 52%
    13:00 +21°C° 0 mm 2 mps 757 mmHg 51%
    14:00 +21°C° 0 mm 2 mps 757 mmHg 49%
    15:00 +23°C° 0 mm 2 mps 756 mmHg 47%
    16:00 +21°C° 0 mm 2 mps 756 mmHg 53%
    17:00 +20°C° 0 mm 2 mps 756 mmHg 59%
    18:00 +20°C° 0 mm 1 mps 755 mmHg 65%
    19:00 +19°C° 0 mm 1 mps 755 mmHg 69%
    20:00 +16°C° 0 mm 1 mps 755 mmHg 73%
    21:00 +14°C° 0 mm 1 mps 755 mmHg 77%
    22:00 +14°C° 0 mm 2 mps 754 mmHg 79%
    23:00 +14°C° 0 mm 2 mps 754 mmHg 80%

    Day after tomorrow, 27 August, Tuesday

    Time Temperature Precipitation Wind Pressure Humidity
    00:00 +13°C° 0 mm 2 mps 754 mmHg 82%
    01:00 +13°C° 0 mm 2 mps 753 mmHg 80%
    02:00 +12°C° 0 mm 3 mps 753 mmHg 79%
    03:00 +13°C° 0 mm 3 mps 752 mmHg 77%
    04:00 +13°C° 0 mm 3 mps 752 mmHg 77%
    05:00 +13°C° 0 mm 3 mps 751 mmHg 76%
    06:00 +13°C° 0 mm 4 mps 751 mmHg 75%
    07:00 +14°C° 0 mm 4 mps 750 mmHg 74%
    08:00 +17°C° 0 mm 4 mps 750 mmHg 72%
    09:00 +18°C° 0 mm 4 mps 749 mmHg 70%
    10:00 +18°C° 0.6 mm 4 mps 749 mmHg 74%
    11:00 +19°C° 0.6 mm 4 mps 748 mmHg 77%
    12:00 +19°C° 0.6 mm 4 mps 748 mmHg 80%
    13:00 +19°C° 1.2 mm 4 mps 747 mmHg 80%
    14:00 +19°C° 1.2 mm 4 mps 747 mmHg 81%
    15:00 +20°C° 1.2 mm 4 mps 747 mmHg 81%
    16:00 +19°C° 0.9 mm 4 mps 746 mmHg 82%
    17:00 +18°C° 0.9 mm 4 mps 746 mmHg 84%
    18:00 +18°C° 0.9 mm 4 mps 746 mmHg 85%
    19:00 +15°C° 0.1 mm 4 mps 746 mmHg 86%
    20:00 +14°C° 0.1 mm 4 mps 746 mmHg 87%
    21:00 +13°C° 0.1 mm 4 mps 746 mmHg 88%
    22:00 +12°C° 0 mm 4 mps 747 mmHg 88%
    23:00 +11°C° 0 mm 4 mps 747 mmHg 88%

    28 August, Wednesday

    Time Temperature Precipitation Wind Pressure Humidity
    00:00 +11°C° 0 mm 4 mps 747 mmHg 89%
    01:00 +10°C° 0 mm 4 mps 747 mmHg 89%
    02:00 +8°C° 0 mm 4 mps 748 mmHg 90%
    03:00 +7°C° 0 mm 5 mps 748 mmHg 90%
    04:00 +6°C° 0 mm 5 mps 748 mmHg 87%
    05:00 +5°C° 0 mm 4 mps 749 mmHg 83%
    06:00 +4°C° 0 mm 4 mps 749 mmHg 80%
    07:00 +5°C° 0 mm 5 mps 749 mmHg 74%
    08:00 +7°C° 0 mm 5 mps 749 mmHg 68%
    09:00 +8°C° 0 mm 6 mps 749 mmHg 61%
    10:00 +8°C° 0 mm 6 mps 750 mmHg 60%
    11:00 +9°C° 0 mm 6 mps 750 mmHg 58%
    12:00 +9°C° 0 mm 6 mps 750 mmHg 56%
    13:00 +9°C° 0 mm 6 mps 750 mmHg 58%
    14:00 +8°C° 0 mm 6 mps 750 mmHg 59%
    15:00 +7°C° 0 mm 5 mps 751 mmHg 60%
    16:00 +8°C° 0 mm 5 mps 751 mmHg 62%
    17:00 +8°C° 0 mm 5 mps 751 mmHg 64%
    18:00 +10°C° 0 mm 4 mps 751 mmHg 65%
    19:00 +8°C° 0 mm 4 mps 752 mmHg 66%
    20:00 +8°C° 0 mm 4 mps 752 mmHg 67%
    21:00 +8°C° 0 mm 4 mps 752 mmHg 69%
    22:00 +8°C° 0 mm 4 mps 752 mmHg 71%
    23:00 +7°C° 0 mm 4 mps 752 mmHg 73%

    29 August, Thursday

    Time Temperature Precipitation Wind Pressure Humidity
    00:00 +7°C° 0 mm 4 mps 752 mmHg 76%
    01:00 +6°C° 0 mm 4 mps 752 mmHg 77%
    02:00 +6°C° 0 mm 4 mps 752 mmHg 78%
    03:00 +5°C° 0 mm 3 mps 752 mmHg 80%
    04:00 +5°C° 0 mm 4 mps 752 mmHg 81%
    05:00 +5°C° 0 mm 4 mps 752 mmHg 82%
    06:00 +4°C° 0 mm 4 mps 752 mmHg 83%
    07:00 +6°C° 0 mm 5 mps 753 mmHg 77%
    08:00 +7°C° 0 mm 5 mps 753 mmHg 70%
    09:00 +8°C° 0 mm 5 mps 753 mmHg 64%
    10:00 +9°C° 0 mm 6 mps 753 mmHg 60%
    11:00 +11°C° 0 mm 6 mps 753 mmHg 57%
    12:00 +13°C° 0 mm 6 mps 753 mmHg 53%
    13:00 +13°C° 0 mm 5 mps 753 mmHg 52%
    14:00 +14°C° 0 mm 5 mps 753 mmHg 51%
    15:00 +14°C° 0 mm 5 mps 753 mmHg 51%
    16:00 +13°C° 0 mm 4 mps 753 mmHg 55%
    17:00 +13°C° 0 mm 4 mps 753 mmHg 60%
    18:00 +12°C° 0 mm 3 mps 753 mmHg 64%
    19:00 +11°C° 0 mm 3 mps 753 mmHg 69%
    20:00 +9°C° 0 mm 2 mps 753 mmHg 74%
    21:00 +7°C° 0 mm 2 mps 753 mmHg 79%
    22:00 +7°C° 0 mm 2 mps 754 mmHg 81%
    23:00 +6°C° 0 mm 2 mps 754 mmHg 83%

    30 August, Friday

    Time Temperature Precipitation Wind Pressure Humidity
    00:00 +6°C° 0 mm 2 mps 754 mmHg 84%
    01:00 +5°C° 0 mm 2 mps 754 mmHg 86%
    02:00 +5°C° 0 mm 2 mps 754 mmHg 89%
    03:00 +5°C° 0 mm 2 mps 754 mmHg 91%
    04:00 +4°C° 0 mm 2 mps 754 mmHg 92%
    05:00 +4°C° 0 mm 2 mps 754 mmHg 93%
    06:00 +4°C° 0 mm 2 mps 754 mmHg 94%
    07:00 +6°C° 0 mm 2 mps 754 mmHg 84%
    08:00 +8°C° 0 mm 3 mps 754 mmHg 75%
    09:00 +11°C° 0 mm 3 mps 754 mmHg 66%
    10:00 +12°C° 0 mm 3 mps 753 mmHg 61%
    11:00 +13°C° 0 mm 3 mps 753 mmHg 56%
    12:00 +14°C° 0 mm 3 mps 753 mmHg 51%
    13:00 +14°C° 0 mm 3 mps 753 mmHg 54%
    14:00 +13°C° 0 mm 3 mps 752 mmHg 56%
    15:00 +13°C° 0 mm 3 mps 752 mmHg 59%
    16:00 +13°C° 0.4 mm 2 mps 751 mmHg 71%
    17:00 +11°C° 0.4 mm 1 mps 751 mmHg 82%
    18:00 +10°C° 0.4 mm 1 mps 751 mmHg 93%
    19:00 +9°C° 0.1 mm 1 mps 751 mmHg 94%
    20:00 +9°C° 0.1 mm 1 mps 751 mmHg 95%
    21:00 +7°C° 0.1 mm 2 mps 752 mmHg 96%
    22:00 +6°C° 0 mm 2 mps 752 mmHg 97%
    23:00 +5°C° 0 mm 2 mps 752 mmHg 97%
    Show more